Location: Newark
(43.6583°N, 1.6617°E)
Time: 18:56:18
(UTC+00:00)

SR - Visible Passes

Search period start: 18 August 2019 00:00
Search period end: 28 August 2019 00:00
Orbit: 578 x 878 km, 66.7° (Epoch: 16 August)

Date Brightness Start Highest point End Pass type
(mag) Time Alt. Az. Time Alt. Az. Time Alt. Az.
18 Aug ? 20:08:25 10° N 20:11:28 15° NE 20:14:36 10° ENE visible
18 Aug ? 21:49:06 10° NNW 21:54:32 64° NE 21:54:46 64° ENE visible
18 Aug ? 23:32:05 10° WNW 23:34:09 18° W 23:34:09 18° W visible
19 Aug ? 20:59:41 10° NNW 21:04:43 37° NE 21:06:20 31° E visible
19 Aug ? 22:41:42 10° NW 22:45:45 36° W 22:45:45 36° W visible
20 Aug ? 20:10:28 10° N 20:14:44 23° NE 20:17:57 14° E visible
20 Aug ? 21:51:49 10° NW 21:57:20 76° WSW 21:57:22 76° WSW visible
21 Aug ? 19:21:35 10° N 19:24:32 15° NE 19:27:34 10° ENE visible
21 Aug ? 21:02:12 10° NNW 21:07:39 61° NE 21:09:01 48° ESE visible
21 Aug ? 22:45:05 10° WNW 22:48:26 22° W 22:48:26 22° W visible
22 Aug ? 20:12:48 10° NNW 20:17:49 35° NE 20:20:44 22° E visible
22 Aug ? 21:54:46 10° NW 22:00:01 43° WSW 22:00:09 43° WSW visible
23 Aug ? 19:23:37 10° N 19:27:49 22° NE 19:32:11 10° E visible
23 Aug ? 21:04:55 10° NNW 21:10:29 80° WSW 21:11:54 53° SSE visible
23 Aug ? 22:49:34 10° W 22:51:19 12° W 22:51:19 12° W visible
24 Aug ? 20:15:20 10° NNW 20:20:47 58° NE 20:23:43 28° ESE visible
24 Aug ? 21:58:06 10° WNW 22:02:34 24° WSW 22:03:08 24° WSW visible
25 Aug ? 19:25:57 10° NNW 19:30:56 34° NE 19:35:35 13° ESE visible
25 Aug ? 21:07:51 10° NW 21:13:10 45° WSW 21:15:01 34° SSW visible
26 Aug ? 20:18:01 10° NNW 20:23:37 84° WSW 20:26:57 27° SSE visible
26 Aug ? 22:02:23 10° WNW 22:04:59 13° WSW 22:06:22 12° WSW visible
27 Aug ? 19:28:27 10° NNW 19:33:55 56° NE 19:38:57 13° SE visible
27 Aug ? 21:11:08 10° NW 21:15:44 26° WSW 21:18:23 19° SSW visible
